Observations for Trim Patrick St
| Time | AQI | Temp °C | Hum % | Pres Pa | CO μg/m³ | H₂S μg/m³ | NO μg/m³ | NO₂ μg/m³ | O₃ μg/m³ | SO₂ μg/m³ | PM1 μg/m³ | PM2.5 μg/m³ | PM10 μg/m³ |
|---|---|---|---|---|---|---|---|---|---|---|---|---|---|
| Friday 28 August 2026 | |||||||||||||
| 12:40 | 2 | 27.9 | 63 | 75,175 | 0 | 0 | 1.89 | 7.28 | 61.45 | 11.45 | 15.71 | 24 | 26.4 |
| 12:39 | 2 | 27.8 | 61 | 75,190 | 0 | 0 | 1.76 | 1.54 | 34.78 | 12.58 | 18.29 | 27.23 | 29.96 |
| 12:38 | 2 | 27.7 | 60 | 75,257 | 0 | 0 | 1.71 | 1.77 | 40.31 | 13.15 | 17.43 | 26.57 | 28.44 |
| 12:37 | 2 | 27.6 | 61 | 75,350 | 0 | 0 | 1.72 | 1.69 | 54.58 | 12 | 15.71 | 23.45 | 25.79 |
| 12:36 | 2 | 27.6 | 58 | 75,434 | 0 | 0 | 1.6 | 4.79 | 51.21 | 13 | 14 | 22.32 | 24.55 |
| 12:35 | 2 | 27.5 | 57 | 75,495 | 0 | 0 | 1.62 | 4.69 | 41.66 | 11.8 | 14 | 22.44 | 24.68 |
| 12:34 | 2 | 27.5 | 61 | 75,574 | 0 | 0 | 1.75 | 0.49 | 45 | 13.03 | 16.57 | 27.2 | 27.4 |
| 12:33 | 2 | 27.5 | 58 | 75,693 | 0 | 0 | 1.77 | 2.47 | 39.74 | 11.79 | 16.57 | 25.27 | 26.26 |
| 12:32 | 2 | 27.5 | 64 | 75,764 | 0 | 0 | 1.93 | 2.58 | 46.84 | 12.33 | 16.57 | 24.6 | 27.06 |
| 12:31 | 2 | 27.5 | 65 | 75,841 | 0 | 0 | 2 | 1.43 | 50.27 | 12.69 | 13.14 | 21.58 | 23.73 |
| 12:29 | 2 | 27.4 | 64 | 76,081 | 0 | 0 | 2.03 | 0.01 | 29.79 | 12.68 | 18.29 | 24.62 | 27.08 |
| 12:28 | 2 | 27.5 | 59 | 76,307 | 0 | 0 | 1.96 | 1.35 | 30.42 | 11.99 | 16.57 | 23.76 | 26.13 |
| 12:26 | 2 | 27.5 | 63 | 77,133 | 0 | 0 | 1.99 | 0 | 25.98 | 12.62 | 18.29 | 25.5 | 26.99 |
| 12:25 | 2 | 27.5 | 62 | 77,693 | 0 | 0 | 1.91 | 6.88 | 39.6 | 11.84 | 14.86 | 22.66 | 24.74 |
| 12:20 | 2 | 26.8 | 66 | 81,986 | 0 | 0 | 2.05 | 5.96 | 45.58 | 10.33 | 14.86 | 22.2 | 24.42 |
| 12:16 | 2 | 26.2 | 64 | 86,754 | 0 | 0 | 2.07 | 4.45 | 53.29 | 10.1 | 17.43 | 23.83 | 26.21 |
| 12:15 | 2 | 26.1 | 63 | 88,094 | 0 | 0 | 2.18 | 3.18 | 46.85 | 9.5 | 12.29 | 18.8 | 20.68 |
| 12:14 | 2 | 26 | 64 | 89,298 | 0 | 0 | 2.32 | 2.82 | 51.39 | 10.05 | 14 | 19.43 | 21.37 |
| 12:13 | 2 | 26 | 66 | 91,517 | 0 | 0 | 2.19 | 3.21 | 39.77 | 9.41 | 14 | 20.01 | 22.01 |
| 12:12 | 2 | 25.9 | 63 | 94,220 | 0 | 0 | 2.28 | 0.02 | 31.19 | 10.87 | 15.71 | 24.04 | 26.44 |